This is the latest recevied weather packets stored in our database for station/object K6LCM-13. If no packets are shown the sender has not sent any weather packets the latest 10 day(s).
| Time | Temp. | Humidity | Pressure | Rain* | Wind** | Luminosity | Snow |
|---|---|---|---|---|---|---|---|
| 1777695414 | 13.33° C | 92% | 1012.6 hPa | 0 mm | - | - | - |
| 1777694873 | 13.89° C | 91% | 1012.4 hPa | 0 mm | - | - | - |
| 1777692713 | 13.89° C | 91% | 1012.5 hPa | 0 mm | - | - | - |
| 1777692174 | 14.44° C | 91% | 1012.5 hPa | 0 mm | - | - | - |
| 1777691633 | 14.44° C | 91% | 1012.5 hPa | 0 mm | - | - | - |
| 1777690553 | 14.44° C | 90% | 1012.4 hPa | 0 mm | - | - | - |
| 1777690013 | 14.44° C | 90% | 1012.3 hPa | 0 mm | - | - | - |
| 1777689259 | 14.44° C | 89% | 1012.1 hPa | 0 mm | - | - | - |
| 1777688190 | 15° C | 88% | 1012.1 hPa | 0 mm | - | - | - |
| 1777687110 | 15° C | 87% | 1012.1 hPa | 0 mm | - | - | - |
| 1777686571 | 15° C | 86% | 1012.2 hPa | 0 mm | - | - | - |
| 1777686030 | 15.56° C | 86% | 1012.2 hPa | 0 mm | - | - | - |
| 1777685491 | 15.56° C | 85% | 1012.2 hPa | 0 mm | - | - | - |
| 1777684411 | 16.11° C | 84% | 1012.2 hPa | 0 mm | - | - | - |
| 1777683331 | 16.11° C | 82% | 1012.1 hPa | 0 mm | - | - | - |
| 1777681598 | 17.22° C | 81% | 1012.3 hPa | 0 mm | - | - | - |
| 1777678897 | 17.22° C | 79% | 1012.7 hPa | 0 mm | - | - | - |
| 1777678358 | 17.78° C | 78% | 1012.7 hPa | 0 mm | - | - | - |
| 1777677278 | 17.78° C | 79% | 1013.1 hPa | 0 mm | - | - | - |
| 1777676738 | 17.78° C | 78% | 1013.1 hPa | 0 mm | - | - | - |
| 1777676198 | 18.33° C | 76% | 1013.1 hPa | 0 mm | - | - | - |
| 1777675117 | 18.33° C | 78% | 1013.3 hPa | 0 mm | - | - | - |
| 1777674578 | 18.33° C | 78% | 1013.5 hPa | 0 mm | - | - | - |
| 1777674038 | 17.78° C | 79% | 1013.6 hPa | 0 mm | - | - | - |
| 1777673409 | 17.78° C | 80% | 1013.7 hPa | 0 mm | - | - | - |
* Rain latest hour (hover to see other rain measurements)
** Current wind speed in m/s (hover to see current wind gust speed)